| time (UTC) | temp C | wind direction | speed KPH | gust KPH | rain 1hr cm | rain 24hr cm | rain mn cm | humidity % | barometer mb |
| 20260508024616 | 20 | 207 | 0.0 | 6.4 | 0.00 | 0.00 | 0.00 | 28 | 1016.6 |
| 20260508023037 | 21 | 261 | 1.6 | 6.4 | 0.00 | 0.00 | 0.00 | 26 | 1016.5 |
| 20260508021522 | 21 | 296 | 0.0 | 6.4 | 0.00 | 0.00 | 0.00 | 29 | 1016.3 |
| 20260508020006 | 21 | 345 | 0.0 | 11.3 | 0.00 | 0.00 | 0.00 | 29 | 1016.4 |
| 20260508014553 | 21 | 340 | 1.6 | 8.0 | 0.00 | 0.00 | 0.00 | 27 | 1016.4 |
| 20260508013034 | 21 | 347 | 3.2 | 8.0 | 0.00 | 0.00 | 0.00 | 27 | 1016.5 |
| 20260508011514 | 22 | 76 | 3.2 | 14.5 | 0.00 | 0.00 | 0.00 | 26 | 1016.6 |
| 20260508010059 | 23 | 252 | 1.6 | 14.5 | 0.00 | 0.00 | 0.00 | 25 | 1016.7 |
| 20260508004548 | 23 | 337 | 3.2 | 12.9 | 0.00 | 0.00 | 0.00 | 24 | 1016.7 |
| 20260508003024 | 23 | 278 | 3.2 | 9.7 | 0.00 | 0.00 | 0.00 | 25 | 1016.7 |
| 20260508001527 | 23 | 250 | 3.2 | 8.0 | 0.00 | 0.00 | 0.00 | 26 | 1016.7 |
| 20260508000053 | 23 | 141 | 3.2 | 9.7 | 0.00 | 0.00 | 0.00 | 27 | 1016.5 |
| 20260507234538 | 23 | 248 | 1.6 | 12.9 | 0.00 | 0.00 | 0.00 | 26 | 1016.4 |
| 20260507233022 | 24 | 318 | 3.2 | 9.7 | 0.00 | 0.00 | 0.00 | 25 | 1016.6 |
| 20260507231504 | 25 | 116 | 3.2 | 11.3 | 0.00 | 0.00 | 0.00 | 26 | 1016.6 |
| 20260507230050 | 25 | 279 | 1.6 | 6.4 | 0.00 | 0.00 | 0.00 | 27 | 1016.6 |
| 20260507224520 | 25 | 309 | 4.8 | 12.9 | 0.00 | 0.00 | 0.00 | 28 | 1016.8 |
| 20260507223058 | 24 | 278 | 3.2 | 11.3 | 0.00 | 0.00 | 0.00 | 30 | 1016.9 |
| 20260507221541 | 24 | 277 | 3.2 | 8.0 | 0.00 | 0.00 | 0.00 | 31 | 1017.2 |
| 20260507220020 | 24 | 261 | 1.6 | 14.5 | 0.00 | 0.00 | 0.00 | 32 | 1017.3 |
| 20260507214558 | 25 | 69 | 3.2 | 14.5 | 0.00 | 0.00 | 0.00 | 28 | 1017.3 |
| 20260507214502 | 25 | 260 | 3.2 | 14.5 | 0.00 | 0.00 | 0.00 | 29 | 1017.4 |
| 20260507213043 | 25 | 99 | 0.0 | 8.0 | 0.00 | 0.00 | 0.00 | 31 | 1017.4 |
| 20260507211520 | 24 | 290 | 1.6 | 8.0 | 0.00 | 0.00 | 0.00 | 32 | 1017.6 |
| 20260507210005 | 24 | 167 | 1.6 | 8.0 | 0.00 | 0.00 | 0.00 | 33 | 1017.8 |
| 20260507204542 | 23 | 178 | 3.2 | 6.4 | 0.00 | 0.00 | 0.00 | 32 | 1018.1 |
| 20260507203037 | 23 | 287 | 1.6 | 9.7 | 0.00 | 0.00 | 0.00 | 33 | 1018.2 |
| 20260507201600 | 22 | 133 | 1.6 | 14.5 | 0.00 | 0.00 | 0.00 | 35 | 1018.5 |
| 20260507201502 | 22 | 179 | 1.6 | 14.5 | 0.00 | 0.00 | 0.00 | 36 | 1018.5 |
| 20260507200038 | 22 | 322 | 3.2 | 9.7 | 0.00 | 0.00 | 0.00 | 37 | 1018.6 |
| 20260507194527 | 22 | 153 | 1.6 | 11.3 | 0.00 | 0.00 | 0.00 | 41 | 1018.7 |
| 20260507193059 | 21 | 184 | 1.6 | 8.0 | 0.00 | 0.00 | 0.00 | 39 | 1018.7 |
| 20260507191539 | 21 | 298 | 1.6 | 8.0 | 0.00 | 0.00 | 0.00 | 42 | 1019.0 |
| 20260507190016 | 20 | 302 | 3.2 | 6.4 | 0.00 | 0.00 | 0.00 | 44 | 1019.1 |
| 20260507184551 | 20 | 206 | 1.6 | 6.4 | 0.00 | 0.00 | 0.00 | 45 | 1019.3 |
| 20260507183033 | 19 | 238 | 3.2 | 9.7 | 0.00 | 0.00 | 0.00 | 46 | 1019.5 |
| 20260507181509 | 18 | 278 | 3.2 | 9.7 | 0.00 | 0.00 | 0.00 | 47 | 1019.4 |
| 20260507180047 | 18 | 257 | 1.6 | 6.4 | 0.00 | 0.00 | 0.00 | 48 | 1019.6 |
| 20260507174534 | 18 | 138 | 1.6 | 6.4 | 0.00 | 0.00 | 0.00 | 50 | 1019.8 |
| 20260507173010 | 17 | 227 | 3.2 | 9.7 | 0.00 | 0.00 | 0.00 | 50 | 1019.9 |
| 20260507171542 | 17 | 296 | 1.6 | 6.4 | 0.00 | 0.00 | 0.00 | 50 | 1019.9 |
| 20260507170017 | 16 | 302 | 3.2 | 8.0 | 0.00 | 0.00 | 0.00 | 52 | 1019.9 |
| 20260507164558 | 16 | 272 | 1.6 | 6.4 | 0.00 | 0.00 | 0.00 | 53 | 1019.9 |
| 20260507163038 | 16 | 250 | 3.2 | 4.8 | 0.00 | 0.00 | 0.00 | 52 | 1020.1 |
| 20260507161519 | 15 | 283 | 1.6 | 4.8 | 0.00 | 0.00 | 0.00 | 54 | 1020.4 |
| 20260507160101 | 15 | 253 | 1.6 | 6.4 | 0.00 | 0.00 | 0.00 | 55 | 1020.4 |
| 20260507154534 | 15 | 285 | 1.6 | 6.4 | 0.00 | 0.00 | 0.00 | 57 | 1020.4 |
| 20260507153010 | 14 | 284 | 1.6 | 6.4 | 0.00 | 0.00 | 0.00 | 60 | 1020.4 |
| 20260507151550 | 13 | 178 | 0.0 | 4.8 | 0.00 | 0.00 | 0.00 | 64 | 1020.5 |
| 20260507150037 | 12 | 191 | 1.6 | 6.4 | 0.00 | 0.00 | 0.00 | 64 | 1020.5 |
| 20260507144506 | 12 | 315 | 1.6 | 8.0 | 0.00 | 0.00 | 0.00 | 66 | 1020.6 |
| 20260507143056 | 12 | 328 | 1.6 | 8.0 | 0.00 | 0.00 | 0.00 | 68 | 1020.5 |
| 20260507141522 | 11 | 267 | 1.6 | 4.8 | 0.00 | 0.00 | 0.00 | 69 | 1020.4 |
| 20260507140004 | 11 | 236 | 1.6 | 9.7 | 0.00 | 0.00 | 0.00 | 71 | 1020.4 |
| 20260507134538 | 11 | 301 | 1.6 | 6.4 | 0.00 | 0.00 | 0.00 | 71 | 1020.3 |
| 20260507133020 | 11 | 301 | 1.6 | 8.0 | 0.00 | 0.00 | 0.00 | 71 | 1020.2 |
| 20260507131554 | 11 | 243 | 1.6 | 3.2 | 0.00 | 0.00 | 0.00 | 71 | 1020.0 |
| 20260507130041 | 11 | 259 | 0.0 | 4.8 | 0.00 | 0.00 | 0.00 | 71 | 1020.1 |
| 20260507124607 | 11 | 247 | 1.6 | 4.8 | 0.00 | 0.00 | 0.00 | 71 | 1020.1 |
| 20260507124501 | 11 | 247 | 1.6 | 4.8 | 0.00 | 0.00 | 0.00 | 71 | 1020.2 |
| 20260507123047 | 11 | 209 | 0.0 | 3.2 | 0.00 | 0.00 | 0.00 | 71 | 1020.1 |
| 20260507121520 | 11 | 235 | 0.0 | 4.8 | 0.00 | 0.00 | 0.00 | 72 | 1020.0 |
| 20260507120005 | 11 | 155 | 1.6 | 8.0 | 0.00 | 0.00 | 0.00 | 73 | 1020.0 |
| 20260507114545 | 11 | 150 | 0.0 | 3.2 | 0.00 | 0.00 | 0.00 | 73 | 1019.9 |
| 20260507113018 | 12 | 265 | 0.0 | 3.2 | 0.00 | 0.00 | 0.00 | 72 | 1019.9 |
| 20260507111555 | 12 | 273 | 0.0 | 4.8 | 0.00 | 0.00 | 0.00 | 70 | 1019.6 |
| 20260507111503 | 12 | 273 | 0.0 | 4.8 | 0.00 | 0.00 | 0.00 | 70 | 1019.6 |
| 20260507110042 | 12 | 282 | 0.0 | 4.8 | 0.00 | 0.00 | 0.00 | 70 | 1019.5 |
| 20260507104522 | 12 | 40 | 0.0 | 4.8 | 0.00 | 0.00 | 0.00 | 70 | 1019.4 |
| 20260507103100 | 13 | 266 | 0.0 | 9.7 | 0.00 | 0.00 | 0.00 | 70 | 1019.1 |
| 20260507103001 | 13 | 266 | 1.6 | 9.7 | 0.00 | 0.00 | 0.00 | 70 | 1019.1 |
| 20260507101547 | 13 | 340 | 0.0 | 14.5 | 0.00 | 0.00 | 0.00 | 71 | 1019.0 |
| 20260507100028 | 13 | 178 | 0.0 | 6.4 | 0.00 | 0.00 | 0.00 | 71 | 1018.9 |
| 20260507094512 | 13 | 128 | 1.6 | 12.9 | 0.00 | 0.00 | 0.00 | 71 | 1018.9 |
| 20260507093050 | 13 | 328 | 0.0 | 14.5 | 0.00 | 0.00 | 0.00 | 71 | 1018.8 |
| 20260507091533 | 13 | 341 | 0.0 | 6.4 | 0.00 | 0.00 | 0.00 | 70 | 1018.7 |
| 20260507090012 | 14 | 230 | 3.2 | 14.5 | 0.00 | 0.00 | 0.00 | 69 | 1018.8 |
| 20260507084550 | 14 | 248 | 4.8 | 12.9 | 0.00 | 0.00 | 0.00 | 69 | 1018.8 |
| 20260507083034 | 15 | 240 | 4.8 | 14.5 | 0.00 | 0.00 | 0.00 | 68 | 1018.8 |
| 20260507081509 | 15 | 239 | 1.6 | 8.0 | 0.00 | 0.00 | 0.00 | 67 | 1018.6 |
| 20260507080048 | 15 | 265 | 3.2 | 11.3 | 0.00 | 0.00 | 0.00 | 67 | 1018.7 |
| 20260507074506 | 15 | 261 | 3.2 | 11.3 | 0.00 | 0.00 | 0.00 | 67 | 1018.8 |
| 20260507073047 | 15 | 275 | 3.2 | 9.7 | 0.00 | 0.00 | 0.00 | 67 | 1018.7 |
| 20260507071529 | 15 | 274 | 3.2 | 11.3 | 0.00 | 0.00 | 0.00 | 67 | 1018.8 |
| 20260507070002 | 15 | 220 | 6.4 | 11.3 | 0.00 | 0.00 | 0.00 | 66 | 1018.9 |
| 20260507064550 | 15 | 244 | 1.6 | 11.3 | 0.00 | 0.00 | 0.00 | 66 | 1019.0 |
| 20260507063026 | 15 | 329 | 1.6 | 8.0 | 0.00 | 0.00 | 0.00 | 65 | 1019.1 |
| 20260507061513 | 15 | 297 | 3.2 | 6.4 | 0.00 | 0.00 | 0.00 | 64 | 1019.3 |
| 20260507060058 | 16 | 287 | 3.2 | 11.3 | 0.00 | 0.00 | 0.00 | 63 | 1019.3 |
| 20260507054538 | 16 | 285 | 3.2 | 6.4 | 0.00 | 0.00 | 0.00 | 63 | 1019.5 |
| 20260507053022 | 16 | 342 | 3.2 | 9.7 | 0.00 | 0.00 | 0.00 | 63 | 1019.8 |
| 20260507051513 | 16 | 278 | 3.2 | 8.0 | 0.00 | 0.00 | 0.00 | 63 | 1019.8 |
| 20260507050051 | 16 | 287 | 1.6 | 6.4 | 0.00 | 0.00 | 0.00 | 63 | 1019.7 |
| 20260507044542 | 16 | 274 | 3.2 | 9.7 | 0.00 | 0.00 | 0.00 | 63 | 1019.7 |
| 20260507043021 | 16 | 294 | 1.6 | 8.0 | 0.00 | 0.00 | 0.00 | 63 | 1019.6 |
| 20260507041558 | 16 | 267 | 1.6 | 6.4 | 0.00 | 0.00 | 0.00 | 64 | 1019.6 |
| 20260507040044 | 16 | 169 | 1.6 | 12.9 | 0.00 | 0.00 | 0.00 | 63 | 1019.3 |
| 20260507034524 | 17 | 263 | 3.2 | 12.9 | 0.00 | 0.00 | 0.00 | 62 | 1019.0 |
| 20260507033013 | 17 | 311 | 1.6 | 11.3 | 0.00 | 0.00 | 0.00 | 60 | 1018.8 |
| 20260507031600 | 18 | 265 | 4.8 | 12.9 | 0.00 | 0.00 | 0.00 | 58 | 1018.6 |
| 20260507030038 | 18 | 212 | 4.8 | 16.1 | 0.00 | 0.00 | 0.00 | 57 | 1018.6 |